• In Russia
  • List of Countries
  • For 7 days
  • Water Temperature
  • Satellite Maps
  • Weather Map
  • Weather Widgets
  • user-avatar
    Login

    Hourly Weather Top

    Today, 18 October, Thursday

    Time Temperature Precipitation Wind Pressure Humidity
    00:00 +19°C° 0 mm 0 mps 682 mmHg 94%
    01:00 +19°C° 0 mm 0 mps 682 mmHg 95%
    02:00 +19°C° 0 mm 0 mps 682 mmHg 95%
    03:00 +19°C° 0 mm 0 mps 682 mmHg 95%
    04:00 +18°C° 0 mm 0 mps 682 mmHg 95%
    05:00 +19°C° 0 mm 0 mps 682 mmHg 93%
    06:00 +20°C° 0 mm 0 mps 683 mmHg 92%
    07:00 +20°C° 0 mm 0 mps 683 mmHg 90%
    08:00 +23°C° 0 mm 0 mps 684 mmHg 77%
    09:00 +26°C° 0 mm 0 mps 685 mmHg 64%
    10:00 +29°C° 0 mm 0 mps 685 mmHg 51%
    11:00 +31°C° 0.3 mm 1 mps 685 mmHg 51%
    12:00 +31°C° 0.3 mm 1 mps 684 mmHg 52%
    13:00 +31°C° 0.3 mm 1 mps 684 mmHg 53%
    14:00 +30°C° 0.5 mm 1 mps 683 mmHg 57%
    15:00 +29°C° 0.5 mm 1 mps 683 mmHg 61%
    16:00 +28°C° 0.5 mm 1 mps 682 mmHg 65%
    17:00 +26°C° 0.9 mm 1 mps 683 mmHg 73%
    18:00 +25°C° 0.9 mm 1 mps 683 mmHg 81%
    19:00 +23°C° 0.9 mm 1 mps 683 mmHg 89%
    20:00 +23°C° 0.3 mm 1 mps 683 mmHg 90%
    21:00 +22°C° 0.3 mm 1 mps 684 mmHg 92%
    22:00 +22°C° 0.3 mm 1 mps 684 mmHg 93%
    23:00 +22°C° 0.1 mm 1 mps 684 mmHg 93%

    Tomorrow, 19 October, Friday

    Time Temperature Precipitation Wind Pressure Humidity
    00:00 +21°C° 0.1 mm 1 mps 684 mmHg 94%
    01:00 +21°C° 0.1 mm 1 mps 684 mmHg 95%
    02:00 +21°C° 0 mm 1 mps 683 mmHg 95%
    03:00 +20°C° 0 mm 1 mps 683 mmHg 95%
    04:00 +20°C° 0 mm 1 mps 682 mmHg 95%
    05:00 +20°C° 0 mm 1 mps 683 mmHg 93%
    06:00 +21°C° 0 mm 1 mps 683 mmHg 91%
    07:00 +22°C° 0 mm 1 mps 684 mmHg 88%
    08:00 +24°C° 0 mm 1 mps 685 mmHg 75%
    09:00 +27°C° 0 mm 1 mps 685 mmHg 62%
    10:00 +30°C° 0 mm 1 mps 686 mmHg 48%
    11:00 +31°C° 0 mm 1 mps 686 mmHg 45%
    12:00 +32°C° 0 mm 1 mps 685 mmHg 42%
    13:00 +33°C° 0 mm 1 mps 685 mmHg 39%
    14:00 +32°C° 0.2 mm 1 mps 684 mmHg 44%
    15:00 +31°C° 0.2 mm 1 mps 683 mmHg 50%
    16:00 +29°C° 0.2 mm 1 mps 683 mmHg 55%
    17:00 +27°C° 0.7 mm 1 mps 683 mmHg 64%
    18:00 +25°C° 0.7 mm 1 mps 683 mmHg 72%
    19:00 +24°C° 0.7 mm 1 mps 684 mmHg 81%
    20:00 +23°C° 0.5 mm 1 mps 684 mmHg 83%
    21:00 +23°C° 0.5 mm 1 mps 685 mmHg 85%
    22:00 +22°C° 0.5 mm 1 mps 685 mmHg 88%
    23:00 +22°C° 0 mm 1 mps 685 mmHg 89%

    Day after tomorrow, 20 October, Saturday

    Time Temperature Precipitation Wind Pressure Humidity
    00:00 +21°C° 0 mm 1 mps 684 mmHg 90%
    01:00 +21°C° 0 mm 1 mps 684 mmHg 90%
    02:00 +21°C° 0 mm 1 mps 684 mmHg 90%
    03:00 +21°C° 0 mm 1 mps 684 mmHg 90%
    04:00 +20°C° 0 mm 1 mps 683 mmHg 90%
    05:00 +19°C° 0 mm 0 mps 684 mmHg 87%
    06:00 +20°C° 0 mm 0 mps 685 mmHg 85%
    07:00 +20°C° 0 mm 0 mps 685 mmHg 83%
    08:00 +23°C° 0 mm 0 mps 686 mmHg 71%
    09:00 +28°C° 0 mm 1 mps 687 mmHg 60%
    10:00 +31°C° 0 mm 1 mps 687 mmHg 48%
    11:00 +31°C° 0.2 mm 1 mps 687 mmHg 48%
    12:00 +32°C° 0.2 mm 1 mps 686 mmHg 47%
    13:00 +32°C° 0.2 mm 1 mps 685 mmHg 47%
    14:00 +31°C° 0.3 mm 1 mps 685 mmHg 52%
    15:00 +30°C° 0.3 mm 1 mps 684 mmHg 57%
    16:00 +29°C° 0.3 mm 1 mps 683 mmHg 62%
    17:00 +27°C° 0.7 mm 1 mps 684 mmHg 71%
    18:00 +25°C° 0.7 mm 1 mps 684 mmHg 79%
    19:00 +23°C° 0.7 mm 1 mps 684 mmHg 88%
    20:00 +23°C° 0.1 mm 1 mps 685 mmHg 89%
    21:00 +22°C° 0.1 mm 1 mps 685 mmHg 90%
    22:00 +22°C° 0.1 mm 1 mps 685 mmHg 92%
    23:00 +22°C° 0 mm 1 mps 685 mmHg 92%

    21 October, Sunday

    Time Temperature Precipitation Wind Pressure Humidity
    00:00 +21°C° 0 mm 1 mps 685 mmHg 93%
    01:00 +19°C° 0 mm 0 mps 684 mmHg 94%
    02:00 +19°C° 0 mm 0 mps 684 mmHg 94%
    03:00 +18°C° 0 mm 0 mps 684 mmHg 94%
    04:00 +18°C° 0 mm 0 mps 684 mmHg 95%
    05:00 +19°C° 0 mm 0 mps 684 mmHg 92%
    06:00 +20°C° 0 mm 0 mps 685 mmHg 90%
    07:00 +20°C° 0 mm 0 mps 685 mmHg 87%
    08:00 +23°C° 0 mm 0 mps 686 mmHg 73%
    09:00 +26°C° 0 mm 0 mps 687 mmHg 60%
    10:00 +30°C° 0 mm 0 mps 688 mmHg 46%
    11:00 +30°C° 0 mm 0 mps 687 mmHg 43%
    12:00 +33°C° 0 mm 1 mps 686 mmHg 41%
    13:00 +33°C° 0 mm 1 mps 685 mmHg 38%
    14:00 +32°C° 0 mm 1 mps 685 mmHg 43%
    15:00 +31°C° 0 mm 1 mps 684 mmHg 48%
    16:00 +30°C° 0 mm 1 mps 684 mmHg 53%
    17:00 +27°C° 0.3 mm 1 mps 684 mmHg 62%
    18:00 +25°C° 0.3 mm 1 mps 684 mmHg 72%
    19:00 +23°C° 0.3 mm 1 mps 684 mmHg 81%
    20:00 +23°C° 0.1 mm 1 mps 684 mmHg 84%
    21:00 +23°C° 0.1 mm 1 mps 685 mmHg 87%
    22:00 +20°C° 0.1 mm 0 mps 685 mmHg 89%
    23:00 +20°C° 0 mm 0 mps 684 mmHg 90%

    22 October, Monday

    Time Temperature Precipitation Wind Pressure Humidity
    00:00 +20°C° 0 mm 0 mps 684 mmHg 91%
    01:00 +19°C° 0 mm 0 mps 684 mmHg 93%
    02:00 +19°C° 0 mm 0 mps 683 mmHg 93%
    03:00 +19°C° 0 mm 0 mps 683 mmHg 94%
    04:00 +18°C° 0 mm 0 mps 683 mmHg 94%
    05:00 +19°C° 0 mm 0 mps 684 mmHg 92%
    06:00 +20°C° 0 mm 0 mps 684 mmHg 90%
    07:00 +20°C° 0 mm 0 mps 685 mmHg 88%
    08:00 +23°C° 0 mm 0 mps 686 mmHg 77%
    09:00 +25°C° 0 mm 0 mps 686 mmHg 66%
    10:00 +28°C° 0 mm 0 mps 687 mmHg 55%
    11:00 +28°C° 1 mm 0 mps 686 mmHg 57%
    12:00 +28°C° 1 mm 0 mps 685 mmHg 59%
    13:00 +29°C° 1 mm 0 mps 684 mmHg 61%
    14:00 +30°C° 1.5 mm 1 mps 684 mmHg 65%
    15:00 +29°C° 1.5 mm 1 mps 683 mmHg 69%
    16:00 +28°C° 1.5 mm 1 mps 683 mmHg 74%
    17:00 +26°C° 0.8 mm 1 mps 683 mmHg 79%
    18:00 +24°C° 0.8 mm 1 mps 683 mmHg 84%
    19:00 +23°C° 0.8 mm 1 mps 684 mmHg 90%
    20:00 +22°C° 0 mm 1 mps 684 mmHg 91%
    21:00 +22°C° 0 mm 1 mps 684 mmHg 92%
    22:00 +22°C° 0 mm 1 mps 684 mmHg 93%
    23:00 +21°C° 0 mm 1 mps 684 mmHg 94%

    23 October, Tuesday

    Time Temperature Precipitation Wind Pressure Humidity
    00:00 +21°C° 0 mm 1 mps 684 mmHg 95%
    01:00 +21°C° 0 mm 1 mps 683 mmHg 95%
    02:00 +20°C° 0 mm 1 mps 683 mmHg 95%
    03:00 +20°C° 0 mm 1 mps 683 mmHg 95%
    04:00 +19°C° 0 mm 1 mps 683 mmHg 96%
    05:00 +20°C° 0 mm 1 mps 684 mmHg 93%
    06:00 +20°C° 0 mm 1 mps 684 mmHg 90%
    07:00 +19°C° 0 mm 0 mps 685 mmHg 88%
    08:00 +24°C° 0 mm 1 mps 685 mmHg 74%
    09:00 +27°C° 0 mm 1 mps 686 mmHg 60%
    10:00 +31°C° 0 mm 1 mps 687 mmHg 47%
    11:00 +32°C° 0 mm 1 mps 686 mmHg 43%
    12:00 +33°C° 0 mm 1 mps 686 mmHg 40%
    13:00 +34°C° 0 mm 1 mps 685 mmHg 37%
    14:00 +32°C° 0.1 mm 1 mps 685 mmHg 43%
    15:00 +31°C° 0.1 mm 1 mps 684 mmHg 48%
    16:00 +30°C° 0.1 mm 1 mps 684 mmHg 54%
    17:00 +27°C° 0.3 mm 1 mps 684 mmHg 64%
    18:00 +25°C° 0.3 mm 1 mps 684 mmHg 73%
    19:00 +23°C° 0.3 mm 1 mps 684 mmHg 83%
    20:00 +23°C° 0.1 mm 1 mps 684 mmHg 85%
    21:00 +22°C° 0.1 mm 1 mps 685 mmHg 87%
    22:00 +22°C° 0.1 mm 1 mps 685 mmHg 88%
    23:00 +21°C° 0 mm 1 mps 685 mmHg 90%
    Show more